Terug naar catalogus

CZ-6A DEB

ActiefPO
NORAD 54487·DEBRIS·🇨🇳 China

Gelanceerd Nov 11, 2022 vanaf Taiyuan Satellite Launch Center

Loading…

Volgende Passages (komende 24 uur)

TLE

VersSource: Space-Track

Epoch: Sep 14, 2026, 05:16 UTC

1 54487U 22151HP  26257.22004235  .00025884  00000-0  21089-2 0  9998
2 54487  98.6500 347.0146 0038057 314.1935  45.6160 14.98902888202285

Volg CZ-6A DEB in realtime met AllMySat

Download on the App Store